Location: Gibsondale
(40.9931°N, 80.2478°W)
Time: 18:42:21
(UTC+00:00)

Cosmos 292 Rocket - Pass Details

Date: 29 October 2020
Orbit: 672 x 695 km, 74.0° (Epoch: 24 November)

Event Time Altitude Azimuth Distance (km) Brightness Sun altitude
Rises 22:44:34 0° 204° (SSW) 3,023 7.7 -5.3°
Reaches altitude 10° 22:46:51 10° 207° (SSW) 2,115 6.9 -5.7°
Maximum altitude 22:51:36 69° 290° (WNW) 733 4.2 -6.6°
Drops below altitude 10° 22:56:25 10° 15° (NNE) 2,145 6.1 -7.5°
Sets 22:58:46 0° 18° (NNE) 3,069 6.8 -7.9°
